Location: Newark
(45.9456°N, 15.4064°E)
Time: 02:58:45
(UTC+00:00)

Explorer 7 - Visible Passes

Search period start: 26 January 2020 00:00
Search period end: 05 February 2020 00:00
Orbit: 485 x 679 km, 50.3° (Epoch: 25 January)

Date Brightness Start Highest point End Pass type
(mag) Time Alt. Az. Time Alt. Az. Time Alt. Az.
26 Jan 9.5 03:47:50 11° SSE 03:47:50 11° SSE 03:48:06 10° SSE visible
31 Jan 9.2 18:08:43 10° S 18:09:02 11° S 18:09:02 11° S visible
01 Feb 8.6 18:12:43 10° SSW 18:14:20 19° S 18:14:20 19° S visible
02 Feb 8.0 18:17:07 10° SW 18:19:32 30° S 18:19:32 30° S visible
03 Feb 8.9 16:43:56 10° SSE 16:45:47 13° SE 16:47:36 10° ESE visible
03 Feb 7.6 18:21:47 10° SW 18:24:40 43° SSW 18:24:40 43° SSW visible
04 Feb 8.4 16:47:27 10° S 16:50:29 20° SE 16:53:23 10° E visible
04 Feb 7.4 18:26:38 10° WSW 18:29:43 52° WSW 18:29:43 52° WSW visible
